RESURS P4

导读

RESURS-P4(“资源-P”四号)是俄罗斯独立研制的高分辨率光学地球遥感卫星,于2024年3月31日由“联盟-2.1b”运载火箭,从哈萨克斯坦拜科努尔航天发射场成功发射,进入太阳同步预定轨道。 该卫星空间分辨率可达0.7米,具备宽光谱、高光谱观测及立体成像能力,可用于自然资源勘探、环境污染监测、水体与生态保护区监管,推动全球环境治理领域合作。它是俄罗斯Resurs-P系列遥感卫星的第四颗,将服务地球观测领域的各类应用需求。

Basic Information
目录编号:
59371
目录名称:
RESURS P4
国际标识:
2024-061A
轨道中心:
EARTH
卫星名称:
RESURS P4
卫星全名:
--
卫星状态:
在轨 (已飞行887 天)
发射日期:
2024-03-31 UTC
国别 :
俄罗斯(独联体) (CIS)
星等 :
--
Orbit Information
数据来源 国际轨道数据
星历时间: 2026-09-04T05:17:17+0800
5小时前
查看轨道信息
半长轴: 6846.41km
偏心率: 0.0000613
轨道倾角: 97.280°
近地点辐角 91.914°
升交点赤经 193.458°
平近点角 268.218°
近地点: 467.853km
远地点: 468.693km
周期: 93.962分钟
每日圈数: 15.325281
Detailed Information
使用方式:
暂无
2D Orbit Map
3D Orbit Map
Orbit Altitude Analysis Chart
Orbit Inclination Analysis Chart
Orbit Comprehensive Analysis Chart
View Comprehensive Chart
Conjunction Data List
Event ID Objects TCA Miss Dist (km) Collision Risk Probability Collision Risk Index (CRI) Action
CDM_260903-124204-858905-937123
2026-09-03T
12:42:37+0000
0.327 km
远距离
4.50043E-4 高风险 0.88
CDM_260901-144005-082105-937121
2026-09-01T
14:40:28+0000
0.446 km
远距离
2.319782E-4 高风险 0.82
CDM_260903-085205-937106-351123
2026-09-03T
08:52:46+0000
0.494 km
远距离
2.084252E-4 高风险 0.81
CDM_260905-145904-813605-937121
2026-09-05T
14:59:25+0000
0.588 km
远距离
1.352579E-4 高风险 0.78
CDM_260905-030204-855705-937122
2026-09-05T
03:02:30+0000
0.836 km
远距离
4.937311E-5 中风险 0.69
CDM_260903-182305-082105-937124
2026-09-03T
18:23:05+0000
0.896 km
远距离
3.523147E-5 中风险 0.66
CDM_260903-081105-082105-937123
2026-09-03T
08:11:57+0000
0.921 km
远距离
3.189136E-5 中风险 0.65
CDM_260905-021504-855705-937122
2026-09-05T
02:15:30+0000
0.972 km
远距离
2.993923E-5 中风险 0.65
CDM_260903-094505-082105-937122
2026-09-03T
09:45:59+0000
0.994 km
远距离
2.455311E-5 中风险 0.63
CDM_260903-132904-858905-937122
2026-09-03T
13:29:37+0000
1.195 km
极远距离
1.456693E-5 中风险 0.58